Powrót do katalogu

THORAD AGENA D DEB

AktywnyPO
NORAD 4822·DEBRIS·🇺🇸 United States

Wystrzelony Apr 8, 1970 z Vandenberg Space Force Base

Loading…

Następne Przeloty (najbliższe 24 godziny)

TLE

ŚwieżeSource: Space-Track

Epoka: Sep 14, 2026, 10:29 UTC

1 04822U 70025ED  26257.43700422  .00002513  00000-0  11787-2 0  9991
2 04822  99.4024  75.8653 0049756 206.5982 153.2638 14.20480160803266

Śledź THORAD AGENA D DEB w czasie rzeczywistym z AllMySat

Download on the App Store